EW7736 Weather Reports


Display with metric or nautical units.
time (UTC)temp
F
wind
direction
speed
MPH
gust
MPH
rain 1hr
in
rain 24hr
in
rain mn
in
humidity
%
barometer
mb
20260510165624 61 124 2.0 7.0 0.00 0.05 0.00 53 1015.2
20260510164613 61 123 0.0 1.0 0.00 0.05 0.00 39 1015.1
20260510162458 61 115 1.0 6.0 0.00 0.05 0.00 40 1015.2
20260510161518 60 127 2.0 6.0 0.00 0.05 0.00 29 1015.2
20260510160506 59 141 1.0 3.0 0.00 0.05 0.00 12 1015.2
20260510155507 58 120 0.0 4.0 0.00 0.05 0.00 2 1015.3
20260510154529 58 120 1.0 3.0 0.00 0.05 0.00 3 1015.3
20260510153522 58 124 0.0 1.0 0.00 0.05 0.00 3 1015.0
20260510152450 58 120 0.0 3.0 0.00 0.05 0.00 3 1015.0
20260510150404 58 125 1.0 6.0 0.00 0.05 0.00 1 1014.6
20260510145348 58 119 1.0 6.0 0.00 0.07 0.00 1 1014.4
20260510144343 59 111 1.0 3.0 0.00 0.07 0.00 1 1014.4
20260510143316 58 114 0.0 2.0 0.00 0.08 0.00 1 1014.3
20260510142300 58 121 0.0 3.0 0.00 0.08 0.00 1 1013.9
20260510141302 58 98 1.0 3.0 0.00 0.09 0.00 1 1013.9
20260510140230 58 124 0.0 3.0 0.00 0.09 0.00 1 1013.7
20260510135203 58 122 0.0 3.0 0.00 0.09 0.00 1 1013.7
20260510134152 57 108 1.0 3.0 0.00 0.11 0.00 1 1013.8
20260510133201 57 115 1.0 3.0 0.00 0.11 0.00 1 1013.9
20260510132142 57 114 0.0 3.0 0.00 0.11 0.00 1 1013.7
20260510131151 57 123 0.0 2.0 0.00 0.13 0.00 1 1013.5
20260510130208 57 103 0.0 1.0 0.00 0.13 0.00 1 1013.5
20260510125151 57 105 0.0 0.0 0.00 0.15 0.00 1 1013.3
20260510124214 57 105 0.0 0.0 0.00 0.15 0.00 1 1013.0
20260510123156 57 100 0.0 2.0 0.00 0.16 0.00 1 1012.8
20260510121044 57 91 0.0 3.0 0.00 0.17 0.00 1 1012.6
20260510120013 57 120 0.0 0.0 0.00 0.17 0.00 1 1012.3
20260510113919 55 49 0.0 1.0 0.00 0.17 0.00 1 1011.9
20260510112904 55 49 0.0 0.0 0.00 0.17 0.00 1 1011.9
20260510111841 54 49 0.0 0.0 0.00 0.17 0.00 1 1011.7
20260510104603 54 61 0.0 4.0 0.00 0.17 0.00 1 1011.4
20260510103628 53 36 0.0 3.0 0.00 0.17 0.00 1 1011.1
20260510102555 53 58 0.0 1.0 0.00 0.17 0.00 1 1010.9
20260510101539 53 58 0.0 0.0 0.00 0.18 0.00 1 1010.7
20260510100546 53 58 0.0 2.0 0.00 0.18 0.00 1 1010.5
20260510095518 53 58 0.0 1.0 0.00 0.18 0.00 1 1010.3
20260510094459 53 60 0.0 0.0 0.00 0.18 0.00 1 1010.3
20260510093507 53 60 0.0 0.0 0.00 0.18 0.00 1 1010.1
20260510092455 53 46 0.0 0.0 0.00 0.18 0.00 1 1010.1
20260510091437 53 46 0.0 0.0 0.00 0.18 0.00 1 1010.0
20260510090421 53 46 0.0 0.0 0.00 0.18 0.00 1 1010.1
20260510085416 52 46 0.0 1.0 0.00 0.18 0.00 1 1010.1
20260510084417 52 130 0.0 0.0 0.00 0.18 0.00 1 1010.1
20260510083433 52 130 0.0 0.0 0.00 0.18 0.00 1 1010.1
20260510082430 52 130 0.0 0.0 0.00 0.18 0.00 1 1010.0
20260510081419 52 130 0.0 0.0 0.00 0.18 0.00 1 1010.0
20260510080354 52 130 0.0 0.0 0.00 0.18 0.00 1 1010.1
20260510075325 52 130 0.0 0.0 0.00 0.18 0.00 1 1009.9
20260510074349 52 130 0.0 0.0 0.00 0.18 0.00 1 1009.9
20260510073345 53 130 0.0 0.0 0.00 0.18 0.00 1 1009.9
20260510071153 53 130 0.0 0.0 0.00 0.18 0.00 1 1010.2
20260510070143 53 130 0.0 0.0 0.00 0.18 0.00 1 1010.0
20260510065149 53 130 0.0 0.0 0.00 0.18 0.00 1 1009.7
20260510064122 53 137 0.0 0.0 0.00 0.18 0.00 1 1009.8
20260510063138 54 137 0.0 0.0 0.00 0.18 0.00 1 1010.0
20260510062138 54 124 0.0 4.0 0.00 0.18 0.00 1 1010.4
20260510061146 54 58 0.0 2.0 0.00 0.18 0.00 1 1009.7
20260510054928 54 58 1.0 3.0 0.00 0.18 0.00 1 1009.5
20260510053913 53 41 0.0 2.0 0.00 0.18 0.00 1 1009.6
20260510052923 53 49 0.0 0.0 0.00 0.18 0.00 1 1009.6
20260510050735 54 49 0.0 0.0 0.00 0.18 0.00 1 1009.7
20260510045741 54 293 0.0 0.0 0.00 0.18 0.00 1 1009.8
20260510044739 54 293 0.0 0.0 0.00 0.18 0.00 1 1009.9
20260510043803 54 293 0.0 0.0 0.00 0.18 0.00 1 1009.9
20260510042737 54 274 0.0 0.0 0.00 0.18 0.00 1 1009.9
20260510041736 55 273 0.0 0.0 0.00 0.18 0.00 1 1009.9
20260510040730 55 349 0.0 0.0 0.06 0.18 0.00 1 1010.0
20260510035658 55 146 0.0 0.0 0.12 0.16 0.17 1 1010.1
20260510034657 56 196 0.0 0.0 0.04 0.13 0.15 1 1010.5
20260510032604 58 125 2.0 10.0 0.00 0.13 0.13 30 1010.6
20260510030427 60 119 1.0 8.0 0.00 0.12 0.12 57 1009.9
20260510025400 61 128 1.0 0.0 0.00 0.12 0.12 58 1009.7
20260510023304 61 36 3.0 8.0 0.00 0.12 0.12 58 1008.9
20260510022254 61 45 2.0 6.0 0.00 0.12 0.12 58 1008.8
20260510021221 61 55 2.0 6.0 0.00 0.12 0.12 58 1008.6
20260510020237 60 29 2.0 4.0 0.00 0.12 0.12 59 1008.6
20260510015231 61 55 2.0 4.0 0.00 0.12 0.12 59 1008.5
20260510014247 61 48 2.0 4.0 0.00 0.12 0.12 59 1008.4
20260510012104 61 58 2.0 5.0 0.00 0.12 0.12 59 1008.1
20260510011036 61 34 1.0 4.0 0.00 0.12 0.12 60 1008.1
20260510010005 62 54 1.0 4.0 0.00 0.12 0.12 60 1008.0
20260510004946 62 48 1.0 5.0 0.00 0.12 0.12 60 1008.1
20260510002805 63 47 1.0 6.0 0.00 0.12 0.12 59 1007.8
20260510000656 64 51 2.0 5.0 0.00 0.12 0.12 59 1007.4
20260509235649 64 53 2.0 6.0 0.00 0.12 0.12 58 1007.3
20260509233509 65 44 2.0 8.0 0.00 0.12 0.12 57 1007.3
20260509232509 65 37 4.0 10.0 0.00 0.12 0.12 55 1007.2
20260509230259 66 25 4.0 12.0 0.00 0.12 0.12 55 1007.2
20260509225231 66 37 5.0 12.0 0.00 0.12 0.12 54 1007.2
20260509224237 66 39 3.0 10.0 0.00 0.12 0.12 55 1007.3
20260509223204 66 44 3.0 12.0 0.00 0.12 0.12 53 1007.4
20260509222218 66 96 3.0 12.0 0.00 0.12 0.12 55 1007.3
20260509221147 67 78 2.0 12.0 0.00 0.12 0.12 56 1007.3
20260509220212 66 41 3.0 12.0 0.00 0.12 0.12 54 1007.5
20260509215222 66 35 3.0 10.0 0.00 0.12 0.12 55 1007.6
20260509214235 67 51 3.0 10.0 0.00 0.12 0.12 58 1007.6
20260509212131 66 34 3.0 7.0 0.00 0.12 0.12 55 1007.5
20260509211109 66 37 4.0 9.0 0.00 0.12 0.12 57 1007.6
20260509210129 66 45 3.0 12.0 0.00 0.12 0.12 57 1007.7
20260509205137 65 54 3.0 12.0 0.00 0.12 0.12 58 1007.7
20260509202939 65 38 2.0 7.0 0.00 0.12 0.12 58 1007.9
20260509201918 64 71 3.0 10.0 0.00 0.12 0.12 59 1007.9
20260509195817 63 94 2.0 10.0 0.00 0.12 0.12 58 1008.1
20260509193714 63 108 2.0 11.0 0.00 0.12 0.12 55 1008.4
20260509191548 61 56 2.0 9.0 0.00 0.12 0.12 51 1008.9
20260509190555 61 85 2.0 9.0 0.00 0.12 0.12 49 1009.1
20260509185523 61 15 2.0 9.0 0.00 0.12 0.12 35 1009.2
20260509184523 60 92 3.0 9.0 0.00 0.12 0.12 37 1009.2
20260509182340 59 91 1.0 5.0 0.00 0.12 0.12 17 1009.3
20260509181354 58 104 2.0 5.0 0.00 0.12 0.12 20 1009.4
20260509175217 57 51 2.0 6.0 0.00 0.12 0.12 14 1009.3
20260509174232 57 108 1.0 6.0 0.00 0.12 0.12 6 1009.3
20260509173215 57 22 1.0 7.0 0.00 0.12 0.12 1 1009.4
20260509172218 56 44 2.0 8.0 0.00 0.12 0.12 1 1009.2
20260509171149 56 52 2.0 8.0 0.00 0.12 0.12 1 1009.2